| time (UTC) | temp C | wind direction | speed KPH | gust KPH | rain 1hr cm | rain 24hr cm | rain mn cm | humidity % | barometer mb |
| 20260905053101 | 18 | 0 | 0.0 | 0.0 | 0.00 | 0.00 | 0.00 | 84 | 1014.1 |
| 20260905051610 | 18 | 0 | 0.0 | 0.0 | 0.00 | 0.00 | 0.00 | 83 | 1014.0 |
| 20260905050107 | 18 | 254 | 0.0 | 3.2 | 0.00 | 0.00 | 0.00 | 83 | 1014.2 |
| 20260905044604 | 18 | 0 | 0.0 | 1.6 | 0.00 | 0.00 | 0.00 | 83 | 1014.1 |
| 20260905043059 | 18 | 0 | 0.0 | 0.0 | 0.00 | 0.00 | 0.00 | 83 | 1013.9 |
| 20260905041610 | 18 | 0 | 0.0 | 0.0 | 0.00 | 0.00 | 0.00 | 82 | 1013.6 |
| 20260905040108 | 18 | 0 | 0.0 | 3.2 | 0.00 | 0.00 | 0.00 | 82 | 1013.6 |
| 20260905034606 | 18 | 0 | 0.0 | 3.2 | 0.00 | 0.00 | 0.00 | 81 | 1013.5 |
| 20260905033106 | 19 | 0 | 1.6 | 4.8 | 0.00 | 0.00 | 0.00 | 81 | 1013.3 |
| 20260905031554 | 19 | 253 | 1.6 | 6.4 | 0.00 | 0.00 | 0.00 | 80 | 1013.2 |
| 20260905030111 | 20 | 262 | 1.6 | 6.4 | 0.00 | 0.00 | 0.00 | 80 | 1013.0 |
| 20260905024606 | 20 | 255 | 3.2 | 6.4 | 0.00 | 0.00 | 0.00 | 79 | 1012.9 |
| 20260905023058 | 20 | 261 | 3.2 | 8.0 | 0.00 | 0.00 | 0.00 | 78 | 1012.9 |
| 20260905021603 | 20 | 259 | 3.2 | 8.0 | 0.00 | 0.00 | 0.00 | 77 | 1013.0 |
| 20260905020059 | 20 | 250 | 3.2 | 6.4 | 0.00 | 0.00 | 0.00 | 76 | 1013.0 |
| 20260905014557 | 21 | 274 | 4.8 | 11.3 | 0.00 | 0.00 | 0.00 | 75 | 1012.7 |
| 20260905013116 | 21 | 360 | 4.8 | 12.9 | 0.00 | 0.00 | 0.00 | 72 | 1012.7 |
| 20260905011606 | 22 | 0 | 4.8 | 14.5 | 0.00 | 0.00 | 0.00 | 71 | 1012.8 |
| 20260905010106 | 23 | 247 | 4.8 | 14.5 | 0.00 | 0.00 | 0.00 | 69 | 1012.7 |
| 20260905004600 | 23 | 248 | 3.2 | 12.9 | 0.00 | 0.00 | 0.00 | 69 | 1013.0 |
| 20260905003101 | 23 | 229 | 6.4 | 14.5 | 0.00 | 0.00 | 0.00 | 69 | 1013.1 |
| 20260905001553 | 22 | 269 | 9.7 | 16.1 | 0.00 | 0.00 | 0.00 | 70 | 1013.1 |
| 20260905000059 | 23 | 250 | 6.4 | 17.7 | 0.00 | 0.00 | 0.00 | 69 | 1013.0 |
| 20260904234555 | 23 | 252 | 6.4 | 16.1 | 0.00 | 0.00 | 0.00 | 68 | 1013.1 |
| 20260904233055 | 23 | 251 | 8.0 | 14.5 | 0.00 | 0.00 | 0.00 | 69 | 1013.1 |
| 20260904231552 | 24 | 360 | 4.8 | 16.1 | 0.00 | 0.00 | 0.00 | 68 | 1013.1 |
| 20260904230108 | 23 | 224 | 8.0 | 20.9 | 0.00 | 0.00 | 0.00 | 68 | 1013.3 |
| 20260904224615 | 24 | 273 | 4.8 | 17.7 | 0.00 | 0.00 | 0.00 | 68 | 1013.3 |
| 20260904223107 | 23 | 231 | 11.3 | 19.3 | 0.00 | 0.00 | 0.00 | 66 | 1013.7 |
| 20260904221615 | 23 | 257 | 9.7 | 20.9 | 0.00 | 0.00 | 0.00 | 67 | 1013.6 |
| 20260904214555 | 23 | 221 | 9.7 | 20.9 | 0.00 | 0.00 | 0.00 | 66 | 1013.6 |
| 20260904213104 | 24 | 252 | 9.7 | 19.3 | 0.00 | 0.00 | 0.00 | 66 | 1013.9 |
| 20260904211558 | 24 | 250 | 8.0 | 17.7 | 0.00 | 0.00 | 0.00 | 67 | 1013.8 |
| 20260904210100 | 24 | 360 | 8.0 | 19.3 | 0.00 | 0.00 | 0.00 | 67 | 1014.0 |
| 20260904204604 | 24 | 244 | 8.0 | 22.5 | 0.00 | 0.00 | 0.00 | 67 | 1014.1 |
| 20260904203108 | 24 | 360 | 8.0 | 20.9 | 0.00 | 0.00 | 0.00 | 66 | 1014.0 |
| 20260904201616 | 24 | 234 | 8.0 | 19.3 | 0.00 | 0.00 | 0.00 | 67 | 1014.1 |
| 20260904200118 | 23 | 238 | 6.4 | 19.3 | 0.00 | 0.00 | 0.00 | 66 | 1014.0 |
| 20260904194604 | 23 | 231 | 9.7 | 17.7 | 0.00 | 0.00 | 0.00 | 66 | 1014.1 |
| 20260904193100 | 23 | 278 | 4.8 | 17.7 | 0.00 | 0.00 | 0.00 | 66 | 1014.1 |
| 20260904191602 | 23 | 227 | 8.0 | 16.1 | 0.00 | 0.00 | 0.00 | 65 | 1014.3 |
| 20260904184605 | 23 | 241 | 9.7 | 19.3 | 0.00 | 0.00 | 0.00 | 66 | 1014.7 |
| 20260904183057 | 23 | 259 | 6.4 | 17.7 | 0.00 | 0.00 | 0.00 | 67 | 1014.6 |
| 20260904181603 | 23 | 299 | 6.4 | 17.7 | 0.00 | 0.00 | 0.00 | 67 | 1014.6 |
| 20260904180100 | 23 | 229 | 3.2 | 16.1 | 0.00 | 0.00 | 0.00 | 66 | 1014.7 |
| 20260904174602 | 23 | 208 | 4.8 | 17.7 | 0.00 | 0.00 | 0.00 | 66 | 1014.8 |
| 20260904173053 | 23 | 266 | 4.8 | 14.5 | 0.00 | 0.00 | 0.00 | 67 | 1014.7 |
| 20260904171620 | 22 | 232 | 4.8 | 14.5 | 0.00 | 0.00 | 0.00 | 68 | 1014.9 |
| 20260904170059 | 22 | 234 | 8.0 | 14.5 | 0.00 | 0.00 | 0.00 | 68 | 1014.9 |
| 20260904164558 | 23 | 221 | 3.2 | 9.7 | 0.00 | 0.00 | 0.00 | 65 | 1014.6 |
| 20260904163100 | 23 | 175 | 4.8 | 12.9 | 0.00 | 0.00 | 0.00 | 64 | 1014.4 |
| 20260904161603 | 23 | 116 | 4.8 | 14.5 | 0.00 | 0.00 | 0.00 | 64 | 1014.5 |
| 20260904160100 | 24 | 114 | 3.2 | 11.3 | 0.00 | 0.00 | 0.00 | 63 | 1014.2 |
| 20260904154556 | 23 | 85 | 3.2 | 12.9 | 0.00 | 0.00 | 0.00 | 66 | 1014.0 |
| 20260904153116 | 22 | 105 | 6.4 | 14.5 | 0.00 | 0.00 | 0.00 | 66 | 1014.0 |
| 20260904151559 | 21 | 105 | 8.0 | 12.9 | 0.00 | 0.00 | 0.00 | 71 | 1013.9 |
| 20260904150057 | 21 | 115 | 8.0 | 14.5 | 0.00 | 0.00 | 0.00 | 70 | 1013.9 |
| 20260904144613 | 20 | 105 | 6.4 | 12.9 | 0.00 | 0.00 | 0.00 | 74 | 1013.8 |
| 20260904143121 | 18 | 90 | 6.4 | 12.9 | 0.00 | 0.00 | 0.00 | 77 | 1013.8 |
| 20260904141559 | 19 | 82 | 3.2 | 8.0 | 0.00 | 0.00 | 0.00 | 76 | 1013.7 |
| 20260904140058 | 18 | 88 | 3.2 | 6.4 | 0.00 | 0.00 | 0.00 | 78 | 1013.5 |
| 20260904134558 | 17 | 99 | 4.8 | 9.7 | 0.00 | 0.00 | 0.00 | 82 | 1013.5 |
| 20260904133111 | 17 | 94 | 4.8 | 11.3 | 0.00 | 0.00 | 0.00 | 83 | 1013.2 |
| 20260904131556 | 17 | 101 | 6.4 | 11.3 | 0.00 | 0.00 | 0.00 | 83 | 1013.3 |
| 20260904130105 | 17 | 101 | 6.4 | 12.9 | 0.00 | 0.00 | 0.00 | 82 | 1013.2 |
| 20260904124559 | 17 | 82 | 4.8 | 9.7 | 0.00 | 0.00 | 0.00 | 83 | 1013.2 |
| 20260904123100 | 17 | 80 | 4.8 | 9.7 | 0.00 | 0.00 | 0.00 | 83 | 1013.1 |
| 20260904121556 | 17 | 97 | 4.8 | 9.7 | 0.00 | 0.00 | 0.00 | 83 | 1013.1 |
| 20260904120105 | 17 | 93 | 6.4 | 11.3 | 0.00 | 0.00 | 0.00 | 82 | 1013.0 |
| 20260904114606 | 17 | 105 | 6.4 | 12.9 | 0.00 | 0.00 | 0.00 | 82 | 1013.2 |
| 20260904113058 | 18 | 107 | 4.8 | 14.5 | 0.00 | 0.00 | 0.00 | 82 | 1013.2 |
| 20260904111557 | 18 | 98 | 6.4 | 14.5 | 0.00 | 0.00 | 0.00 | 82 | 1013.3 |
| 20260904110053 | 18 | 121 | 8.0 | 12.9 | 0.00 | 0.00 | 0.00 | 82 | 1013.3 |
| 20260904104601 | 18 | 109 | 6.4 | 11.3 | 0.00 | 0.00 | 0.00 | 83 | 1013.2 |
| 20260904103057 | 18 | 101 | 4.8 | 11.3 | 0.00 | 0.00 | 0.00 | 84 | 1013.1 |
| 20260904101553 | 17 | 104 | 6.4 | 11.3 | 0.00 | 0.00 | 0.00 | 84 | 1012.9 |
| 20260904100059 | 17 | 94 | 4.8 | 9.7 | 0.00 | 0.00 | 0.00 | 84 | 1013.0 |
| 20260904094559 | 17 | 132 | 3.2 | 4.8 | 0.00 | 0.00 | 0.00 | 84 | 1012.9 |
| 20260904093054 | 17 | 133 | 3.2 | 6.4 | 0.00 | 0.00 | 0.00 | 85 | 1012.9 |
| 20260904091554 | 17 | 159 | 1.6 | 6.4 | 0.00 | 0.00 | 0.00 | 84 | 1013.0 |
| 20260904090100 | 17 | 161 | 1.6 | 6.4 | 0.00 | 0.00 | 0.00 | 84 | 1013.0 |
| 20260904084601 | 17 | 161 | 1.6 | 3.2 | 0.00 | 0.00 | 0.00 | 84 | 1013.0 |
| 20260904083105 | 17 | 161 | 0.0 | 3.2 | 0.00 | 0.00 | 0.00 | 84 | 1013.1 |
| 20260904081600 | 17 | 161 | 1.6 | 6.4 | 0.00 | 0.00 | 0.00 | 84 | 1013.3 |
| 20260904080121 | 17 | 0 | 0.0 | 0.0 | 0.00 | 0.00 | 0.00 | 84 | 1013.4 |
| 20260904074556 | 17 | 161 | 0.0 | 3.2 | 0.00 | 0.00 | 0.00 | 84 | 1013.5 |
| 20260904073112 | 17 | 161 | 1.6 | 6.4 | 0.00 | 0.00 | 0.00 | 84 | 1013.4 |
| 20260904071603 | 17 | 207 | 0.0 | 4.8 | 0.00 | 0.00 | 0.00 | 84 | 1013.5 |
| 20260904064557 | 17 | 207 | 1.6 | 4.8 | 0.00 | 0.00 | 0.00 | 83 | 1013.4 |
| 20260904063116 | 18 | 208 | 0.0 | 3.2 | 0.00 | 0.00 | 0.00 | 83 | 1013.4 |
| 20260904061557 | 18 | 0 | 0.0 | 0.0 | 0.00 | 0.00 | 0.00 | 83 | 1013.3 |
| 20260904060056 | 18 | 0 | 0.0 | 0.0 | 0.00 | 0.00 | 0.00 | 83 | 1013.3 |
| 20260904054604 | 17 | 0 | 0.0 | 0.0 | 0.00 | 0.00 | 0.00 | 82 | 1013.3 |
| 20260904053138 | 18 | 0 | 0.0 | 0.0 | 0.00 | 0.00 | 0.00 | 82 | 1013.4 |